sat.trackr.live / text

‹ back to catalog

CHUANGXIN 20C (CX-20C)

NORAD 58427 · 2023-181C

PAYLOAD ACTIVE UNKNOWN

§ Identity

Operator
Country
PRC
Launch date
2023-11-23
Launch site
XICLF
Launch vehicle
Mass (kg)
RCS (m²)

External: N2YO · Heavens-Above · Gunter

§ Orbital elements

Epoch: 2026-09-21T18:17:46.142304Z

Period
107.34 min
Inclination
49.9605°
Eccentricity
0.0012001
Mean motion
13.41493891 rev/d
Perigee alt
1,094.7 km
Apogee alt
1,112.7 km
Semi-major
7,481.9 km
B*
1.0138e-4
RAAN
332.6186°
Arg perigee
193.5623°
Mean anomaly
166.4932°
Rev number
13,871

§ Raw data

CHUANGXIN 20C (CX-20C)1 58427U 23181C   26264.76233961 -.00000071  00000+0  10138-3 0  99922 58427  49.9605 332.6186 0012001 193.5623 166.4932 13.41493891138717

JSON: /api/v1/satellites/58427 · /tle

For live sub-satellite position, see the globe view (requires WebGL).

§ Visibility from observer

Set your observer location to see the next 7 days of passes ≥ 10°. The values pass through the URL so the page stays shareable.

No JS? Fill the form by hand. The geolocation button needs JavaScript.